User: anonymous   Login
Location: Unspecified
(0.0000°N, 0.0000°E)
Time: 03:31:57
(UTC+00:00)
Language:

ATHENOXAT 1 - Orbit

View from above orbital plane
View from above orbital plane
View from above satellite
View from above satellite

Ground track
Ground track

The orbit data is extracted from the following two-line orbital elements,

1 41168U 15077C   17112.48733142 +.00001714 +00000-0 +59678-4 0  9996
2 41168 014.9946 216.2376 0013683 324.4478 021.7377 15.11389089074592
Epoch (UTC): 22 April 2017 11:41:45
Eccentricity: 0.0013683
inclination: 14.9946°
perigee height: 522 km
apogee height: 541 km
right ascension of ascending node: 216.2376°
argument of perigee: 324.4478°
revolutions per day: 15.11389089
mean anomaly at epoch: 21.7377°
orbit number at epoch: 7459

The dashed part of the orbit path shows where the satellite is in the earth's shadow,  

DLR